Terug naar catalogus

STARLINK-5821

ActiefCommunicatieVLEO
NORAD 57069·PAYLOAD·🇺🇸 United States

Gelanceerd Jun 22, 2023 vanaf Vandenberg Space Force Base

Loading…

Volgende Passages (komende 24 uur)

TLE

VersSource: CelesTrak SupGP

Epoch: Sep 15, 2026, 02:48 UTC

1 57069C 23088X   26258.11715278  .00033136  00000+0  12001-2 0  2582
2 57069  43.0023 106.7534 0001445 273.6796 171.5887 15.27563421    15

Volg STARLINK-5821 in realtime met AllMySat

Download on the App Store